星链-2763 (STARLINK-2763 )

导读

STARLINK-2763是美国太空探索技术公司星链(Starlink)互联网星座中的一颗卫星,于2021年5月26日发射入轨,承担为全球提供低延迟、高速宽带互联网服务的任务。作为星链星座组网的组成单元,它依托低轨部署优势,推动了星链全球覆盖网络的构建。

Basic Information
目录编号:
48670
目录名称:
STARLINK-2763
国际标识:
2021-044AJ
轨道中心:
EARTH
卫星名称:
星链-2763
卫星全名:
星链-2763 (STARLINK-2763 )
卫星状态:
在轨 (已飞行1927 天)
发射日期:
2021-05-26 UTC
国别 :
美国 (US)
星等 :
--
Orbit Information
数据来源 国际轨道数据
星历时间: 2026-09-04T04:08:11+0800
7小时前
查看轨道信息
半长轴: 6848.885km
偏心率: 0.0001397
轨道倾角: 53.162°
近地点辐角 64.494°
升交点赤经 355.161°
平近点角 295.621°
近地点: 469.791km
远地点: 471.705km
周期: 94.013分钟
每日圈数: 15.316976
Detailed Information
固有亮度:
5
最大亮度:
2.5
卫星平台:
Starlink V1.0
覆盖范围:
全球
运营商:
太空探索技术公司
运营商所在国:
美国
制造商(研发单位):
太空探索技术公司
制造商所在国:
美国
使用方式:
暂无
Satellite Introduction
星链(Starlink)计划是由太空探索技术公司(SpaceX)提出的一个巨型低轨卫星互联网星座项目,计划在2019年至2024年间在太空搭建由约1.2万颗卫星组成的“星链”网络,其中1584颗将部署在地球上空550千米处的近地轨道,并从2020年开始工作。该卫星仍在工作。
2D Orbit Map
3D Orbit Map
Orbit Altitude Analysis Chart
Orbit Inclination Analysis Chart
Orbit Comprehensive Analysis Chart
View Comprehensive Chart
Conjunction Data List
Event ID Objects TCA Miss Dist (km) Collision Risk Probability Collision Risk Index (CRI) Action
CDM_260905-065804-867006-862621
2026-09-05T
06:58:34+0000
2.183 km
极远距离
2.017047E-6 低风险 0.41
CDM_260904-213504-867006-798221
2026-09-04T
21:35:58+0000
2.783 km
极远距离
1.274553E-6 低风险 0.37